This demonstration page uses our WeatherBlox Daily Observations layout. Learn more.

39.08367, -84.50855

Hourly Observations for May 26, 2019

Temp ( °F °C ) Dew Point ( °F °C ) Humidity (%) Winds ( mph kmh ) Pressure ( in mb ) Visibility ( mi km ) Precip ( " mm )
12:03 am 00:03 Clear with Mist and Fog 68 20 67 19.4 96 96 Calm 30.03 1017 3 4.828032 0 0
12:30 am 00:30 Clear with Mist and Fog 67 19.4 66 18.9 97 97 Calm 30.03 1017 1.75 2.816352 0 0
12:44 am 00:44 Clear with Mist and Fog 67 19.4 67 19.4 100 100 Calm 30.03 1017 3 4.828032 0 0
12:51 am 00:51 Clear with Mist and Fog 66 19 66 19 100 100 Calm 30.03 1017 1.75 2.816352 0 0
12:53 am 00:53 Clear with Mist and Fog 67 19.4 66 18.9 97 97 Calm 30.03 1017 1.5 2.414016 0 0
1:03 am 01:03 Clear with Fog 67 19.4 66 18.9 97 97 Calm 30.03 1017 0.5 0.804672 0 0
1:06 am 01:06 Mostly Cloudy with Fog 67 19.4 67 19.4 100 100 Calm 30.03 1017 0.25 0.402336 0 0
1:22 am 01:22 Mostly Clear with Mist and Fog 67 19.4 66 18.9 97 97 Calm 30.03 1017 1.25 2.01168 0 0
1:25 am 01:25 Mostly Clear with Mist and Fog 67 19.4 66 18.9 97 97 Calm 30.03 1017 3 4.828032 0 0
1:45 am 01:45 Clear with Mist and Fog 67 19.4 66 18.9 97 97 Calm 30.03 1017 1.75 2.816352 0 0
1:53 am 01:53 Clear with Mist and Fog 68 20 67 19.4 96 96 Calm 30.03 1017 1 1.609344 0 0
2:14 am 02:14 Clear with Mist and Fog 67 19.4 67 19.4 100 100 Calm 30.03 1017 2.5 4.02336 0 0
2:23 am 02:23 Clear with Mist and Fog 67 19.4 66 18.9 97 97 Calm 30.03 1017 1.75 2.816352 0 0
2:28 am 02:28 Mostly Clear with Mist and Fog 67 19.4 67 19.4 100 100 Calm 30.03 1017 3 4.828032 0 0
2:53 am 02:53 Mostly Clear with Mist and Fog 67 19.4 67 19.4 100 100 Calm 30.03 1017 4 6.437376 0 0
3:42 am 03:42 Clear with Mist and Fog 66 18.9 65 18.3 96 96 Calm 30 1016 1.5 2.414016 0 0
3:53 am 03:53 Clear with Mist and Fog 65 18.3 64 17.8 97 97 Calm 30 1016 2 3.218688 0 0
4:01 am 04:01 Clear with Mist and Fog 66 18.9 65 18.3 96 96 Calm 30 1016 3 4.828032 0 0
4:20 am 04:20 Clear with Mist and Fog 65 18.3 64 17.8 97 97 Calm 30 1016 2 3.218688 0 0
4:30 am 04:30 Clear with Mist and Fog 66 18.9 65 18.3 96 96 Calm 30 1016 4 6.437376 0 0
4:41 am 04:41 Clear with Mist and Fog 66 18.9 65 18.3 96 96 Calm 30 1016 1.75 2.816352 0 0
4:50 am 04:50 Clear with Fog 64 18 64 18 100 100 Calm 30 1016 0.25 0.402336 0 0
4:51 am 04:51 Clear with Fog 65 18.3 65 18.3 100 100 Calm 30 1016 0.25 0.402336 0 0
5:08 am 05:08 Clear with Mist and Fog 66 18.9 65 18.3 96 96 SSW 3 6 30 1016 1 1.609344 0 0
5:23 am 05:23 Clear with Fog 65 18.3 64 17.8 97 97 Calm 30.03 1017 0.25 0.402336 0 0
5:37 am 05:37 Clear with Mist and Fog 65 18.3 64 17.8 97 97 Calm 30.03 1017 1.25 2.01168 0 0
5:43 am 05:43 Clear with Mist and Fog 65 18.3 65 18.3 100 100 Calm 30.03 1017 3 4.828032 0 0
5:53 am 05:53 Mostly Clear with Mist and Fog 66 18.9 65 18.3 96 96 Calm 30.03 1017 5 8.04672 0 0
6:06 am 06:06 Clear with Mist and Fog 64 17.8 64 17.8 100 100 Calm 30.03 1017 1.5 2.414016 0 0
6:13 am 06:13 Clear with Fog 64 17.8 64 17.8 100 100 Calm 30.03 1017 0.25 0.402336 0 0
6:30 am 06:30 Mostly Cloudy with Fog 65 18.3 64 17.8 97 97 Calm 30.03 1017 0.25 0.402336 0 0
6:37 am 06:37 Sunny with Fog 65 18.3 64 17.8 97 97 VRB 3 6 30.03 1017 0.5 0.804672 0 0
6:46 am 06:46 Mostly Cloudy with Fog 63 17.2 63 17.2 100 100 Calm 30.03 1017 0.25 0.402336 0 0
6:53 am 06:53 Mostly Cloudy with Fog 64 17.8 64 17.8 100 100 Calm 30.03 1017 0.25 0.402336 0 0
6:57 am 06:57 Sunny with Fog 65 18.3 64 17.8 97 97 Calm 30.03 1017 0.5 0.804672 0 0
7:03 am 07:03 Sunny with Mist and Fog 65 18.3 65 18.3 100 100 Calm 30.03 1017 2.5 4.02336 0 0
7:10 am 07:10 Partly Cloudy with Mist and Fog 65 18.3 65 18.3 100 100 Calm 30.03 1017 4 6.437376 0 0
7:53 am 07:53 Partly Cloudy with Mist and Fog 69 20.6 67 19.4 93 93 Calm 30.06 1018 6 9.656064 0 0
8:53 am 08:53 Sunny 73 22.8 69 20.6 87 87 Calm 30.06 1018 9 14.484096 0 0
9:53 am 09:53 Sunny 79 26.1 71 21.7 77 77 Calm 30.03 1017 10 16.09344 0 0
10:53 am 10:53 Sunny 81 27.2 69 20.6 67 67 S 7 11 30.03 1017 10 16.09344 0 0
11:53 am 11:53 Mostly Cloudy 83 28.3 69 20.6 63 63 WSW 7 11 30.03 1017 10 16.09344 0 0
12:53 pm 12:53 Partly Cloudy 86 30 68 20 55 55 WNW 9 15 30 1016 10 16.09344 0 0
1:53 pm 13:53 Mostly Cloudy 84 28.9 66 18.9 55 55 VRB 3 6 29.97 1015 10 16.09344 0 0
2:53 pm 14:53 Mostly Cloudy with Light Rain 81 27.2 68 20 65 65 SSW 21 33 29.97 1015 10 16.09344 0.04 1.016
3:53 pm 15:53 Sunny 82 27.8 71 21.7 69 69 Calm 29.97 1015 10 16.09344 0.001 0.001
3:57 pm 15:57 Sunny with Thunderstorms 83 28.3 70 21.1 65 65 VRB 5 7 29.97 1015 10 16.09344 0 0
4:25 pm 16:25 Windy with Storms Likely 77 25 66 18.9 69 69 SW 20 31 29.97 1015 7 11.265408 0.02 0.508
4:53 pm 16:53 Cloudy with Thunderstorms 72 22.2 66 18.9 82 82 SW 25 41 30.03 1017 4 6.437376 0.22 5.588
5:39 pm 17:39 Mostly Cloudy 72 22.2 68 20 87 87 SSW 8 13 30 1016 10 16.09344 0.03 0.762
5:53 pm 17:53 Partly Cloudy 72 22.2 69 20.6 91 91 S 7 11 30 1016 10 16.09344 0.03 0.762
6:53 pm 18:53 Sunny 74 23.3 67 19.4 79 79 SSW 7 11 29.97 1015 10 16.09344 0 0
7:53 pm 19:53 Mostly Sunny 75 23.9 66 18.9 74 74 WSW 9 15 30 1016 10 16.09344 0 0
8:53 pm 20:53 Sunny 71 21.7 66 18.9 84 84 SW 5 7 29.97 1015 10 16.09344 0 0
9:53 pm 21:53 Mostly Cloudy 69 20.6 67 19.4 93 93 SE 3 6 30 1016 9 14.484096 0 0
10:53 pm 22:53 Mostly Cloudy 69 20.6 68 20 96 96 Calm 30 1016 10 16.09344 0 0
11:53 pm 23:53 Cloudy 69 20.6 68 20 96 96 E 3 6 30.03 1017 7 11.265408 0.001 0.001

Powered by AerisWeather